sat.trackr.live / text

‹ back to catalog

STARLINK-5598

NORAD 55421 · 2023-014AG

PAYLOAD ACTIVE UNKNOWN

§ Identity

Operator
Country
US
Launch date
2023-01-31
Launch site
AFWTR
Launch vehicle
Mass (kg)
RCS (m²)

Purposes: comms

External: N2YO · Heavens-Above · Gunter

§ Orbital elements

Epoch: 2026-09-20T22:00:03.000096Z

Period
95.71 min
Inclination
70.0019°
Eccentricity
0.0003374
Mean motion
15.04476085 rev/d
Perigee alt
550.8 km
Apogee alt
555.5 km
Semi-major
6,931.3 km
B*
6.4215e-3
RAAN
312.1563°
Arg perigee
290.2209°
Mean anomaly
190.8651°
Rev number
577

§ Raw data

STARLINK-55981 55421U 23014AG  26263.91670139  .00091113  00000+0  64215-2 0  99962 55421  70.0019 312.1563 0003374 290.2209 190.8651 15.04476085  5777

JSON: /api/v1/satellites/55421 · /tle

For live sub-satellite position, see the globe view (requires WebGL).

§ Visibility from observer

Set your observer location to see the next 7 days of passes ≥ 10°. The values pass through the URL so the page stays shareable.

No JS? Fill the form by hand. The geolocation button needs JavaScript.